Weather History for KAUN - October, 2012

Change the Weather History Date:

Tuesday, October 2, 2012

  Actual Average Record
Temperature  
Mean Temperature 81 °F -  
Max Temperature 93 °F 81 °F 98 °F (1952)
Min Temperature 69 °F 55 °F 41 °F (1973)
Cooling Degree Days 16    
Growing Degree Days 31 (Base 50)    
Moisture  
Dew Point 40 °F    
Average Humidity 24    
Maximum Humidity 33    
Minimum Humidity 15    
Precipitation  
Precipitation 0.00 in - - ()
Sea Level Pressure  
Sea Level Pressure 29.92 in    
Wind  
Wind Speed 6 mph (ESE)    
Max Wind Speed 12 mph    
Max Gust Speed -    
Visibility 10 miles    
Events      
Averages and records for this station are not official NWS values.
T = Trace of Precipitation, MM = Missing Value Source: NWS Daily Summary

Daily Weather History Graph

Daily Weather History Graph

Search for Another Location

Airport or City:

Trip Planner

Search our weather history database for the weather conditions in past years. The results will help you decide how hot, cold, wet, or windy it might be!

Date:

Astronomy

Oct. 02, 2012 Rise Set
Actual Time 7:01 AM PDT 6:44 PM PDT
Civil Twilight 6:35 AM PDT 7:11 PM PDT
Nautical Twilight 6:04 AM PDT 7:41 PM PDT
Astronomical Twilight 5:33 AM PDT 8:13 PM PDT
Moon 8:02 PM PDT (10/2) 9:32 AM PDT (10/2)
Length of Visible Light 12h 35m
Length of Day
11h 42m
Waning Gibbous, 93% of the Moon is Illuminated
Oct 2
Waning Gibbous
Oct 8
Last Quarter
Oct 15
New
Oct 21
First Quarter
Oct 29
Full

Hourly Weather History & Observations

Time (PDT) Temp. Dew Point Humidity Pressure Visibility Wind Dir Wind Speed Gust Speed Precip Events Conditions
12:15 AM 77.0 °F 44.6 °F 32% 29.95 in 10.0 mi East 11.5 mph - N/A   Clear
12:35 AM 75.2 °F 42.8 °F 31% 29.95 in 10.0 mi East 6.9 mph - N/A   Clear
12:55 AM 75.2 °F 42.8 °F 31% 29.95 in 10.0 mi East 8.1 mph - N/A   Clear
1:15 AM 75.2 °F 42.8 °F 31% 29.95 in 10.0 mi East 4.6 mph - N/A   Clear
1:35 AM 75.2 °F 42.8 °F 31% 29.95 in 10.0 mi East 4.6 mph - N/A   Clear
1:55 AM 75.2 °F 42.8 °F 31% 29.96 in 10.0 mi East 4.6 mph - N/A   Clear
2:15 AM 73.4 °F 41.0 °F 31% 29.95 in 10.0 mi East 6.9 mph - N/A   Clear
2:55 AM 73.4 °F 41.0 °F 31% 29.94 in 10.0 mi ESE 5.8 mph - N/A   Clear
3:15 AM 73.4 °F 39.2 °F 29% 29.94 in 10.0 mi East 5.8 mph - N/A   Clear
3:55 AM 73.4 °F 39.2 °F 29% 29.94 in 10.0 mi East 6.9 mph - N/A   Clear
4:15 AM 71.6 °F 39.2 °F 31% 29.93 in 10.0 mi Calm Calm - N/A   Clear
4:35 AM 73.4 °F 37.4 °F 27% 29.93 in 10.0 mi East 3.5 mph - N/A   Clear
4:55 AM 71.6 °F 37.4 °F 29% 29.93 in 10.0 mi East 3.5 mph - N/A   Clear
5:15 AM 69.8 °F 37.4 °F 31% 29.93 in 10.0 mi East 3.5 mph - N/A   Clear
5:35 AM 71.6 °F 37.4 °F 29% 29.93 in 10.0 mi East 8.1 mph - N/A   Clear
5:55 AM 71.6 °F 37.4 °F 29% 29.93 in 10.0 mi ESE 5.8 mph - N/A   Clear
6:15 AM 71.6 °F 37.4 °F 29% 29.93 in 10.0 mi ESE 4.6 mph - N/A   Clear
6:35 AM 71.6 °F 35.6 °F 27% 29.93 in 10.0 mi Calm Calm - N/A   Clear
6:55 AM 71.6 °F 35.6 °F 27% 29.93 in 10.0 mi East 8.1 mph - N/A   Clear
7:15 AM 71.6 °F 35.6 °F 27% 29.93 in 10.0 mi East 8.1 mph - N/A   Clear
7:55 AM 73.4 °F 35.6 °F 25% 29.94 in 10.0 mi ESE 9.2 mph - N/A   Clear
8:15 AM 75.2 °F 35.6 °F 24% 29.95 in 10.0 mi East 8.1 mph - N/A   Clear
8:35 AM 77.0 °F 37.4 °F 24% 29.95 in 10.0 mi ESE 8.1 mph - N/A   Clear
8:55 AM 78.8 °F 37.4 °F 23% 29.95 in 10.0 mi ESE 5.8 mph - N/A   Clear
9:15 AM 80.6 °F 37.4 °F 21% 29.95 in 10.0 mi ESE 8.1 mph - N/A   Clear
10:15 AM 84.2 °F 39.2 °F 20% 29.96 in 10.0 mi Calm Calm - N/A   Clear
10:35 AM 87.8 °F 37.4 °F 17% 29.96 in 10.0 mi SE 4.6 mph - N/A   Clear
10:55 AM 87.8 °F 37.4 °F 17% 29.96 in 10.0 mi SSE 4.6 mph - N/A   Clear
11:15 AM 89.6 °F 39.2 °F 17% 29.96 in 10.0 mi SSW 5.8 mph - N/A   Clear
11:55 AM 91.4 °F 39.2 °F 16% 29.95 in 10.0 mi SW 5.8 mph - N/A   Clear
12:15 PM 91.4 °F 39.2 °F 16% 29.95 in 10.0 mi SW 5.8 mph - N/A   Clear
12:35 PM 91.4 °F 42.8 °F 18% 29.94 in 10.0 mi SW 6.9 mph - N/A   Clear
12:55 PM 91.4 °F 42.8 °F 18% 29.94 in 10.0 mi WSW 5.8 mph - N/A   Clear
1:15 PM 91.4 °F 42.8 °F 18% 29.93 in 10.0 mi WSW 5.8 mph - N/A   Clear
1:35 PM 91.4 °F 42.8 °F 18% 29.92 in 10.0 mi Calm Calm - N/A   Clear
1:55 PM 91.4 °F 42.8 °F 18% 29.91 in 10.0 mi West 5.8 mph - N/A   Clear
2:15 PM 91.4 °F 42.8 °F 18% 29.91 in 10.0 mi WSW 6.9 mph - N/A   Clear
2:35 PM 93.2 °F 42.8 °F 17% 29.90 in 10.0 mi South 5.8 mph - N/A   Clear
3:35 PM 93.2 °F 42.8 °F 17% 29.89 in 10.0 mi WSW 8.1 mph - N/A   Clear
3:55 PM 93.2 °F 39.2 °F 15% 29.89 in 10.0 mi West 5.8 mph - N/A   Clear
4:15 PM 93.2 °F 39.2 °F 15% 29.88 in 10.0 mi Calm Calm - N/A   Clear
4:35 PM 93.2 °F 41.0 °F 16% 29.88 in 10.0 mi West 6.9 mph - N/A   Clear
4:55 PM 93.2 °F 42.8 °F 17% 29.88 in 10.0 mi Calm Calm - N/A   Clear
5:15 PM 93.2 °F 42.8 °F 17% 29.87 in 10.0 mi Calm Calm - N/A   Clear
5:55 PM 91.4 °F 42.8 °F 18% 29.87 in 10.0 mi Calm Calm - N/A   Clear
6:15 PM 89.6 °F 42.8 °F 20% 29.87 in 10.0 mi Calm Calm - N/A   Clear
6:55 PM 78.8 °F 42.8 °F 28% 29.86 in 10.0 mi Calm Calm - N/A   Clear
7:15 PM 75.2 °F 42.8 °F 31% 29.86 in 10.0 mi Calm Calm - N/A   Clear
7:35 PM 73.4 °F 42.8 °F 33% 29.86 in 10.0 mi Calm Calm - N/A   Clear
8:15 PM 71.6 °F 41.0 °F 33% 29.87 in 10.0 mi Calm Calm - N/A   Clear
8:35 PM 75.2 °F 42.8 °F 31% 29.87 in 10.0 mi Calm Calm - N/A   Clear
8:55 PM 75.2 °F 41.0 °F 29% 29.87 in 10.0 mi East 6.9 mph - N/A   Clear
9:15 PM 80.6 °F 41.0 °F 24% 29.87 in 10.0 mi East 9.2 mph - N/A   Clear
9:35 PM 78.8 °F 39.2 °F 24% 29.88 in 10.0 mi East 8.1 mph - N/A   Clear
9:55 PM 78.8 °F 39.2 °F 24% 29.88 in 10.0 mi ESE 6.9 mph - N/A   Clear
10:15 PM 78.8 °F 39.2 °F 24% 29.88 in 10.0 mi East 5.8 mph - N/A   Clear
10:55 PM 78.8 °F 37.4 °F 23% 29.89 in 10.0 mi East 9.2 mph - N/A   Clear
11:15 PM 78.8 °F 37.4 °F 23% 29.89 in 10.0 mi East 6.9 mph - N/A   Clear
11:55 PM 77.0 °F 37.4 °F 24% 29.88 in 10.0 mi East 10.4 mph - N/A   Clear